CW4167 Holbaek DK current weather conditions

sailwx.info

Wind from 221 at 0 knots gusting 2

Air temperature 17.2° C
Dewpoint 15.2° C

Last reported at 2019-Aug-23 21:07 UTC.
Time now 2019-Aug-23 22:16 UTC

Location: N 55°39' E 011°49'.
View on Google Maps.

See reports from other nearby stations

  
Tides and Currents Weather Stations Pressure Air Temp Water Temp Dewpoint Dewpoint Depression Visibility Wind Speed Wind Dir Waves Ship Positions
date/time (UTC)wind fromknots sea level pressurealtimeterstation pressurevisibilityair tempwater tempwave heightnotes
2019-Aug-23 21:07 221 0 gusting 2 17.2
2019-Aug-23 21:02 215 1 gusting 2 17.2
2019-Aug-23 20:57 206 1 gusting 2 17.2
2019-Aug-23 20:42 229 0 gusting 2 17.2
2019-Aug-23 20:37 208 0 gusting 2 17.2
2019-Aug-23 20:32 221 1 gusting 2 17.8
2019-Aug-23 20:27 197 1 gusting 2 17.8
2019-Aug-23 20:22 201 1 gusting 2 17.8
2019-Aug-23 20:17 199 1 gusting 2 17.8
2019-Aug-23 20:12 198 1 gusting 2 17.8
2019-Aug-23 20:07 220 0 gusting 4 17.8
2019-Aug-23 19:52 196 0 gusting 1 18.3
2019-Aug-23 19:42 205 1 gusting 2 18.9
2019-Aug-23 19:37 205 0 gusting 2 18.9
2019-Aug-23 19:32 210 1 gusting 2 18.9
2019-Aug-23 19:27 208 0 gusting 2 18.9
2019-Aug-23 19:22 215 0 gusting 2 18.9
2019-Aug-23 19:12 203 0 gusting 2 19.4
2019-Aug-23 19:07 202 1 gusting 2 19.4
2019-Aug-23 19:02 194 0 gusting 2 19.4
2019-Aug-23 18:57 199 1 gusting 2 19.4
2019-Aug-23 18:52 208 1 gusting 2 20.0
2019-Aug-23 18:47 204 0 gusting 2 20.0
2019-Aug-23 18:37 221 1 gusting 2 20.0
2019-Aug-23 18:32 234 1 gusting 2 20.6
2019-Aug-23 18:27 245 0 gusting 2 20.6
2019-Aug-23 18:22 237 1 gusting 2 20.6
2019-Aug-23 18:12 231 2 gusting 4 20.6
2019-Aug-23 17:52 214 0 gusting 6 21.7
2019-Aug-23 17:47 228 1 gusting 5 21.7
2019-Aug-23 17:42 253 1 gusting 5 21.7
2019-Aug-23 17:32 236 4 gusting 10 21.7
2019-Aug-23 17:27 253 2 gusting 7 22.2
2019-Aug-23 17:07 241 2 gusting 6 22.2
2019-Aug-23 17:02 242 3 gusting 8 22.2
2019-Aug-23 16:52 234 3 gusting 8 22.8
2019-Aug-23 16:27 257 4 gusting 10 22.8
2019-Aug-23 16:17 225 4 gusting 7 22.8
2019-Aug-23 16:12 221 5 gusting 12 22.8
2019-Aug-23 16:07 224 4 gusting 8 22.8
2019-Aug-23 16:02 249 5 gusting 7 22.8
2019-Aug-23 15:57 203 6 gusting 12 22.8
2019-Aug-23 15:52 261 2 gusting 7 22.8
2019-Aug-23 15:42 238 4 gusting 8 22.8
2019-Aug-23 15:37 240 1 gusting 8 22.8
2019-Aug-23 15:32 206 2 gusting 5 22.8
2019-Aug-23 15:27 253 2 gusting 5 22.8
2019-Aug-23 15:22 209 4 gusting 10 22.8
2019-Aug-23 15:07 219 6 gusting 11 22.8
2019-Aug-23 15:02 222 5 gusting 11 23.3
2019-Aug-23 14:57 212 4 gusting 11 23.3
2019-Aug-23 14:52 239 6 gusting 10 23.3
2019-Aug-23 14:47 227 8 gusting 13 23.3
2019-Aug-23 14:42 236 5 gusting 13 23.3
2019-Aug-23 14:37 252 8 gusting 13 23.9
2019-Aug-23 14:32 235 5 gusting 10 23.9
2019-Aug-23 14:22 250 5 gusting 10 23.9
2019-Aug-23 14:17 225 4 gusting 10 23.9
2019-Aug-23 14:02 249 6 gusting 12 24.4
2019-Aug-23 13:57 223 5 gusting 12 24.4
2019-Aug-23 13:52 212 6 gusting 11 24.4
2019-Aug-23 13:47 246 6 gusting 13 25.0
2019-Aug-23 13:42 224 7 gusting 11 25.0
2019-Aug-23 13:32 234 8 gusting 15 25.6
2019-Aug-23 13:22 237 6 gusting 13 25.6
2019-Aug-23 13:17 225 6 gusting 13 25.6
2019-Aug-23 13:12 271 6 gusting 13 25.6
2019-Aug-23 13:07 252 7 gusting 13 25.6
2019-Aug-23 13:02 264 7 gusting 15 25.6
2019-Aug-23 12:57 247 4 gusting 13 25.6
2019-Aug-23 12:52 226 6 gusting 13 25.6
2019-Aug-23 12:47 215 6 gusting 13 25.6
2019-Aug-23 12:37 250 6 gusting 13 25.6
2019-Aug-23 12:32 258 6 gusting 13 25.6
2019-Aug-23 12:27 236 9 gusting 13 25.6
2019-Aug-23 12:22 212 8 gusting 17 25.0
2019-Aug-23 12:17 207 5 gusting 13 25.0
2019-Aug-23 12:07 239 5 gusting 10 25.0
2019-Aug-23 12:02 214 6 gusting 15 25.0
2019-Aug-23 11:52 252 7 gusting 17 25.0
2019-Aug-23 11:47 219 6 gusting 13 25.0
2019-Aug-23 11:42 201 7 gusting 13 25.0
2019-Aug-23 11:37 222 5 gusting 13 25.0
2019-Aug-23 11:27 245 6 gusting 14 24.4
2019-Aug-23 11:22 243 6 gusting 18 24.4
2019-Aug-23 11:17 202 6 gusting 13 24.4
2019-Aug-23 11:12 221 8 gusting 14 24.4
2019-Aug-23 11:07 239 8 gusting 17 24.4
2019-Aug-23 11:02 205 6 gusting 11 24.4
2019-Aug-23 10:57 202 5 gusting 15 23.9
2019-Aug-23 10:52 200 9 gusting 17 23.9
2019-Aug-23 10:47 223 6 gusting 18 23.9
2019-Aug-23 10:42 237 6 gusting 13 23.9
2019-Aug-23 10:37 208 5 gusting 13 23.9
2019-Aug-23 10:32 213 5 gusting 12 23.9
2019-Aug-23 10:27 225 7 gusting 17 23.9
2019-Aug-23 10:17 201 6 gusting 13 23.3
2019-Aug-23 10:12 162 6 gusting 12 23.3
2019-Aug-23 10:02 192 7 gusting 14 22.8
2019-Aug-23 09:57 167 7 gusting 13 22.8
2019-Aug-23 09:52 199 7 gusting 13 22.8
2019-Aug-23 09:47 191 6 gusting 13 22.8
2019-Aug-23 09:07 185 4 gusting 10 21.7
2019-Aug-23 09:02 195 6 gusting 10 21.7
2019-Aug-23 08:57 247 3 gusting 10 21.1
2019-Aug-23 08:52 178 4 gusting 11 20.6
2019-Aug-23 08:47 189 5 gusting 10 20.6
2019-Aug-23 08:42 175 6 gusting 12 20.6
2019-Aug-23 08:37 190 6 gusting 12 20.6
2019-Aug-23 08:32 192 6 gusting 12 21.1
2019-Aug-23 08:27 236 2 gusting 10 21.1
2019-Aug-23 08:22 185 6 gusting 13 20.6
2019-Aug-23 08:17 180 8 gusting 14 20.6
2019-Aug-23 08:12 206 5 gusting 13 20.6
2019-Aug-23 08:07 187 5 gusting 12 20.6
2019-Aug-23 07:52 206 5 gusting 12 20.0
2019-Aug-23 07:42 188 4 gusting 10 20.0
2019-Aug-23 07:37 179 3 gusting 8 19.4
2019-Aug-23 07:32 200 4 gusting 10 19.4
2019-Aug-23 07:27 192 5 gusting 11 19.4
2019-Aug-23 07:12 208 5 gusting 14 18.9
2019-Aug-23 07:07 194 6 gusting 12 18.9
2019-Aug-23 06:57 170 6 gusting 12 18.9
2019-Aug-23 06:52 187 5 gusting 12 18.9
2019-Aug-23 06:47 194 5 gusting 13 18.9
2019-Aug-23 06:42 205 4 gusting 10 18.9
2019-Aug-23 06:37 195 5 gusting 10 18.3
2019-Aug-23 06:32 196 4 gusting 12 18.3
2019-Aug-23 06:27 203 4 gusting 10 17.8
2019-Aug-23 06:22 208 4 gusting 10 17.8
2019-Aug-23 06:02 184 5 gusting 11 17.2
2019-Aug-23 05:52 191 5 gusting 10 17.2
2019-Aug-23 05:47 166 4 gusting 10 17.2
2019-Aug-23 05:42 170 1 gusting 6 16.7
2019-Aug-23 05:32 180 2 gusting 7 16.1
2019-Aug-23 05:27 179 3 gusting 8 16.1
2019-Aug-23 05:22 183 2 gusting 6 16.1
2019-Aug-23 05:17 168 4 gusting 6 16.1
2019-Aug-23 05:07 173 2 gusting 6 16.1
2019-Aug-23 05:02 182 2 gusting 7 15.6
2019-Aug-23 04:57 160 4 gusting 7 15.6
2019-Aug-23 04:52 183 2 gusting 6 15.6
2019-Aug-23 04:42 169 2 gusting 5 15.6
2019-Aug-23 04:37 149 2 gusting 5 15.6
2019-Aug-23 04:32 154 1 gusting 2 15.6
2019-Aug-23 04:27 173 2 gusting 5 15.6
2019-Aug-23 04:22 161 4 gusting 6 15.0
2019-Aug-23 04:17 160 2 gusting 6 15.0
2019-Aug-23 04:12 151 2 gusting 7 15.0
2019-Aug-23 04:02 154 2 gusting 7 15.0
2019-Aug-23 03:57 170 1 gusting 5 15.0
2019-Aug-23 03:52 163 2 gusting 5 15.0
2019-Aug-23 03:37 164 2 gusting 6 15.0
2019-Aug-23 03:27 153 2 gusting 4 15.0
2019-Aug-23 03:12 150 1 gusting 2 15.0
2019-Aug-23 03:07 155 2 gusting 4 15.0
2019-Aug-23 03:02 164 1 gusting 2 15.0
2019-Aug-23 02:57 174 1 gusting 4 15.0
2019-Aug-23 02:52 203 0 gusting 2 15.0
2019-Aug-23 02:47 150 0 gusting 4 15.0
2019-Aug-23 02:42 151 1 gusting 4 15.0
2019-Aug-23 02:37 166 0 gusting 2 15.0
2019-Aug-23 02:32 156 1 gusting 2 14.4
2019-Aug-23 02:22 158 1 gusting 4 14.4
2019-Aug-23 02:17 185 0 gusting 4 14.4
2019-Aug-23 02:12 165 2 gusting 4 14.4
2019-Aug-23 02:07 148 2 gusting 6 14.4
2019-Aug-23 01:57 148 3 gusting 6 14.4
2019-Aug-23 01:42 157 2 gusting 5 14.4
2019-Aug-23 01:37 153 2 gusting 4 14.4
2019-Aug-23 01:27 142 2 gusting 4 14.4
2019-Aug-23 01:22 148 2 gusting 2 14.4
2019-Aug-23 01:17 161 1 gusting 2 14.4
2019-Aug-23 01:12 147 2 gusting 4 14.4
2019-Aug-23 00:57 157 1 gusting 4 14.4
2019-Aug-23 00:52 164 1 gusting 4 14.4
2019-Aug-23 00:42 161 2 gusting 2 14.4
2019-Aug-23 00:37 167 1 gusting 4 14.4
2019-Aug-23 00:27 146 1 gusting 2 15.0
2019-Aug-23 00:22 167 1 gusting 4 15.0
2019-Aug-23 00:17 164 1 gusting 2 15.0
2019-Aug-23 00:12 177 2 gusting 4 15.0
2019-Aug-23 00:07 159 1 gusting 4 15.0
2019-Aug-23 00:02 160 2 gusting 6 15.0
2019-Aug-22 23:57 159 4 gusting 7 15.0
2019-Aug-22 23:52 156 2 gusting 6 15.0
2019-Aug-22 23:47 155 2 gusting 5 15.6
2019-Aug-22 23:42 165 4 gusting 6 15.6
2019-Aug-22 23:37 163 4 gusting 7 15.6
2019-Aug-22 23:32 169 2 gusting 5 15.6
2019-Aug-22 23:27 161 2 gusting 7 15.6
2019-Aug-22 23:22 160 4 gusting 5 15.6
2019-Aug-22 23:17 152 3 gusting 5 15.6
2019-Aug-22 23:07 141 4 gusting 6 15.6
2019-Aug-22 23:02 154 4 gusting 5 15.6
2019-Aug-22 22:52 154 4 gusting 6 16.1
2019-Aug-22 22:47 151 2 gusting 5 16.1
2019-Aug-22 22:42 161 3 gusting 5 16.1
2019-Aug-22 22:37 157 4 gusting 6 16.1
2019-Aug-22 22:27 157 3 gusting 5 16.1
2019-Aug-22 22:22 143 4 gusting 5 16.1
2019-Aug-22 22:07 146 4 gusting 5 16.1
2019-Aug-22 22:02 149 2 gusting 5 16.1
2019-Aug-22 21:52 152 2 gusting 5 16.7
2019-Aug-22 21:47 148 3 gusting 5 16.7
2019-Aug-22 21:42 153 3 gusting 4 16.7
2019-Aug-22 21:37 156 2 gusting 4 16.7
2019-Aug-22 21:27 161 2 gusting 4 17.2
2019-Aug-22 21:22 147 2 gusting 5 17.2
2019-Aug-22 21:17 155 2 gusting 4 17.2
2019-Aug-22 21:07 151 2 gusting 4 17.2
2019-Aug-22 21:02 146 2 gusting 4 17.2
2019-Aug-22 20:57 150 1 gusting 4 17.2
2019-Aug-22 20:52 145 1 gusting 4 17.2
2019-Aug-22 20:47 145 2 gusting 4 17.2
2019-Aug-22 20:42 132 2 gusting 4 17.8
2019-Aug-22 20:32 138 4 gusting 5 17.8
2019-Aug-22 20:27 136 3 gusting 5 17.8
2019-Aug-22 20:22 136 1 gusting 4 17.8
2019-Aug-22 20:17 137 2 gusting 5 17.8
2019-Aug-22 20:12 145 2 gusting 2 17.8
2019-Aug-22 20:07 144 2 gusting 4 18.3
2019-Aug-22 20:02 155 2 gusting 4 18.3
2019-Aug-22 19:57 157 2 gusting 4 18.3
2019-Aug-22 19:42 162 2 gusting 5 18.3
2019-Aug-22 19:37 153 2 gusting 2 18.3
2019-Aug-22 19:32 156 1 gusting 2 18.3
2019-Aug-22 19:27 153 1 gusting 4 18.3
2019-Aug-22 19:22 156 2 gusting 4 18.3
2019-Aug-22 19:17 157 2 gusting 4 18.3
2019-Aug-22 19:12 145 2 gusting 4 18.3
2019-Aug-22 19:02 146 1 gusting 2 18.9
2019-Aug-22 18:57 148 1 gusting 2 18.9
2019-Aug-22 18:52 146 1 gusting 2 18.9
2019-Aug-22 18:42 143 1 gusting 2 18.9
2019-Aug-22 18:37 181 19.4
2019-Aug-22 18:32 183 19.4
2019-Aug-22 18:27 181 19.4
2019-Aug-22 18:17 163 0 gusting 2 20.0
2019-Aug-22 18:12 164 2 gusting 4 20.6
2019-Aug-22 18:07 172 2 gusting 4 20.6
2019-Aug-22 17:57 143 1 gusting 4 20.6
2019-Aug-22 17:52 186 1 gusting 5 21.1
2019-Aug-22 17:47 198 1 gusting 6 21.1
2019-Aug-22 17:42 201 1 gusting 2 21.1
2019-Aug-22 17:37 167 3 gusting 7 21.1
2019-Aug-22 17:32 189 2 gusting 6 21.1
2019-Aug-22 17:27 182 3 gusting 7 21.7
2019-Aug-22 17:17 208 3 gusting 6 21.7
2019-Aug-22 17:07 184 3 gusting 10 21.7
2019-Aug-22 17:02 182 5 gusting 12 21.7
2019-Aug-22 16:52 180 5 gusting 10 22.2
2019-Aug-22 16:47 183 6 gusting 12 22.2
2019-Aug-22 16:42 189 6 gusting 13 22.2
2019-Aug-22 16:37 194 6 gusting 13 22.2
2019-Aug-22 16:32 188 4 gusting 15 22.2
2019-Aug-22 16:17 201 6 gusting 18 22.2
2019-Aug-22 16:12 197 5 gusting 12 22.2
2019-Aug-22 16:07 208 5 gusting 12 22.2
2019-Aug-22 16:02 191 8 gusting 17 22.8
2019-Aug-22 15:52 189 10 gusting 15 22.8
2019-Aug-22 15:42 170 10 gusting 15 22.8
2019-Aug-22 15:37 168 6 gusting 15 22.8
2019-Aug-22 15:32 161 10 gusting 19 23.3
2019-Aug-22 15:07 156 10 gusting 15 23.3
2019-Aug-22 15:02 164 11 gusting 20 22.8
2019-Aug-22 14:57 160 11 gusting 19 22.8
2019-Aug-22 14:42 173 7 gusting 15 22.8
2019-Aug-22 14:37 157 8 gusting 19 22.8
2019-Aug-22 14:32 146 11 gusting 18 22.8
2019-Aug-22 14:22 164 9 gusting 14 22.8
2019-Aug-22 14:17 178 8 gusting 17 22.8
2019-Aug-22 14:07 143 8 gusting 14 23.3
2019-Aug-22 13:57 165 7 gusting 15 23.9
2019-Aug-22 13:52 190 8 gusting 15 23.9
2019-Aug-22 13:47 169 8 gusting 17 23.9
2019-Aug-22 13:42 159 7 gusting 18 23.3
2019-Aug-22 13:37 193 7 gusting 17 23.3
2019-Aug-22 13:32 153 11 gusting 19 23.3
2019-Aug-22 13:27 163 8 gusting 13 23.3
2019-Aug-22 13:17 143 8 gusting 18 23.3
2019-Aug-22 13:07 177 8 gusting 14 23.3
2019-Aug-22 12:57 156 10 gusting 17 23.3
2019-Aug-22 12:52 167 7 gusting 19 23.3
2019-Aug-22 12:47 158 7 gusting 18 23.3
2019-Aug-22 12:42 164 6 gusting 17 22.8
2019-Aug-22 12:37 186 8 gusting 14 22.8
2019-Aug-22 12:32 170 8 gusting 14 22.8
2019-Aug-22 12:27 158 6 gusting 14 22.8
2019-Aug-22 12:22 157 7 gusting 15 22.8
2019-Aug-22 12:17 182 5 gusting 13 22.8
2019-Aug-22 12:12 159 6 gusting 15 22.8
2019-Aug-22 12:07 183 8 gusting 13 22.8
2019-Aug-22 12:02 185 6 gusting 13 22.8
2019-Aug-22 11:57 182 6 gusting 14 22.2
2019-Aug-22 11:42 176 7 gusting 15 22.2
2019-Aug-22 11:37 175 10 gusting 18 22.2
2019-Aug-22 11:27 149 6 gusting 15 22.2
2019-Aug-22 11:22 173 11 gusting 17 22.2
2019-Aug-22 11:12 140 8 gusting 17 22.2
2019-Aug-22 11:07 171 8 gusting 17 22.2
2019-Aug-22 10:57 150 10 gusting 14 22.2
2019-Aug-22 10:47 166 8 gusting 13 21.7
2019-Aug-22 10:37 148 7 gusting 15 21.7
2019-Aug-22 10:32 169 9 gusting 17 21.7
2019-Aug-22 10:27 161 8 gusting 13 21.7
2019-Aug-22 10:22 162 7 gusting 17 21.7
2019-Aug-22 10:17 158 6 gusting 13 21.7
2019-Aug-22 10:12 157 7 gusting 17 21.7
2019-Aug-22 10:07 157 7 gusting 13 21.7
2019-Aug-22 10:02 158 6 gusting 13 21.7
2019-Aug-22 09:57 158 6 gusting 13 21.7
2019-Aug-22 09:52 169 9 gusting 13 21.7
2019-Aug-22 09:47 155 10 gusting 18 21.1
2019-Aug-22 09:42 154 8 gusting 15 21.7
2019-Aug-22 09:37 136 9 gusting 17 21.1
2019-Aug-22 09:32 147 10 gusting 17 21.1
2019-Aug-22 09:22 160 6 gusting 13 20.6
2019-Aug-22 09:17 150 9 gusting 14 20.6
2019-Aug-22 09:02 155 7 gusting 18 20.6
2019-Aug-22 08:57 142 8 gusting 19 20.6
2019-Aug-22 08:52 149 10 gusting 19 20.6
2019-Aug-22 08:47 168 8 gusting 15 20.6
2019-Aug-22 08:42 153 9 gusting 13 20.0
2019-Aug-22 08:32 154 6 gusting 13 20.0
2019-Aug-22 08:27 170 8 gusting 17 20.0
2019-Aug-22 08:22 165 8 gusting 15 20.0
2019-Aug-22 08:17 143 8 gusting 17 19.4
2019-Aug-22 08:12 160 11 gusting 17 19.4
2019-Aug-22 08:07 161 9 gusting 17 19.4
2019-Aug-22 08:02 158 8 gusting 15 19.4
2019-Aug-22 07:52 155 6 gusting 12 18.9
2019-Aug-22 07:47 164 6 gusting 15 18.9
2019-Aug-22 07:42 160 8 gusting 12 18.9
2019-Aug-22 07:37 157 8 gusting 17 18.3
2019-Aug-22 07:32 163 6 gusting 11 18.3
2019-Aug-22 07:27 154 6 gusting 13 18.3
2019-Aug-22 07:22 153 5 gusting 11 18.3
2019-Aug-22 07:17 151 5 gusting 11 18.3
2019-Aug-22 07:07 150 5 gusting 10 17.8
2019-Aug-22 07:02 147 5 gusting 8 17.8
2019-Aug-22 06:57 165 6 gusting 10 17.2
2019-Aug-22 06:52 174 5 gusting 11 17.2
2019-Aug-22 06:47 163 4 gusting 6 17.2
2019-Aug-22 06:42 163 4 gusting 6 17.2
2019-Aug-22 06:32 150 4 gusting 6 16.7
2019-Aug-22 06:27 158 6 gusting 10 16.7
2019-Aug-22 06:22 151 5 gusting 10 16.7
2019-Aug-22 06:17 148 5 gusting 10 16.1
2019-Aug-22 06:02 155 4 gusting 7 15.6
2019-Aug-22 05:52 148 4 gusting 10 15.0
2019-Aug-22 05:47 142 5 gusting 10 15.0
2019-Aug-22 05:37 140 6 gusting 8 14.4
2019-Aug-22 05:27 150 4 gusting 7 13.9
2019-Aug-22 05:22 147 4 gusting 7 13.9
2019-Aug-22 05:17 140 4 gusting 7 13.3
2019-Aug-22 05:12 150 2 gusting 5 13.3
2019-Aug-22 05:07 155 3 gusting 5 13.3
2019-Aug-22 04:57 154 2 gusting 5 12.8
2019-Aug-22 04:52 147 4 gusting 6 12.8
2019-Aug-22 04:42 154 3 gusting 5 12.8
2019-Aug-22 04:37 156 3 gusting 5 12.8
2019-Aug-22 04:17 148 3 gusting 6 12.2
2019-Aug-22 04:07 145 4 gusting 7 12.2
2019-Aug-22 04:02 147 4 gusting 7 12.2
2019-Aug-22 03:52 143 4 gusting 6 12.2
2019-Aug-22 03:47 150 3 gusting 6 12.2
2019-Aug-22 03:42 148 2 gusting 5 12.2
2019-Aug-22 03:37 148 4 gusting 5 12.2
2019-Aug-22 03:27 154 3 gusting 5 11.7
2019-Aug-22 03:22 155 2 gusting 4 11.7
2019-Aug-22 03:17 163 1 gusting 2 11.7
2019-Aug-22 03:12 145 2 gusting 4 11.7
2019-Aug-22 03:07 139 2 gusting 4 11.7
2019-Aug-22 03:02 137 2 gusting 4 11.7
2019-Aug-22 02:52 133 2 gusting 4 11.7
2019-Aug-22 02:47 139 2 gusting 2 12.2
2019-Aug-22 02:42 149 1 gusting 2 12.2
2019-Aug-22 02:32 149 3 gusting 5 12.2
2019-Aug-22 02:27 156 3 gusting 5 12.2
2019-Aug-22 02:17 157 4 gusting 5 12.2
2019-Aug-22 02:07 156 4 gusting 5 12.2
2019-Aug-22 02:02 155 4 gusting 5 12.2
2019-Aug-22 01:57 154 4 gusting 5 12.2
2019-Aug-22 01:52 154 2 gusting 4 12.2
2019-Aug-22 01:47 154 4 gusting 4 12.2
2019-Aug-22 01:42 151 4 gusting 4 11.7
2019-Aug-22 01:37 155 2 gusting 4 11.7
2019-Aug-22 01:27 149 4 gusting 4 12.2
2019-Aug-22 01:17 145 3 gusting 4 12.2
2019-Aug-22 01:07 148 4 gusting 5 12.2
2019-Aug-22 00:52 146 2 gusting 4 12.2
2019-Aug-22 00:42 152 4 gusting 5 12.2
2019-Aug-22 00:37 147 4 gusting 5 12.2
2019-Aug-22 00:32 143 4 gusting 5 12.2
2019-Aug-22 00:27 156 2 gusting 6 12.2
2019-Aug-22 00:22 153 4 gusting 6 12.2
2019-Aug-22 00:12 160 4 gusting 5 12.2
2019-Aug-22 00:02 161 2 gusting 2 12.2
2019-Aug-21 23:57 154 2 gusting 4 12.2
2019-Aug-21 23:52 147 2 gusting 4 12.2
2019-Aug-21 23:42 159 2 gusting 5 12.8
2019-Aug-21 23:32 158 3 gusting 4 12.8
2019-Aug-21 23:27 154 4 gusting 5 12.8
2019-Aug-21 23:22 156 4 gusting 4 12.8
2019-Aug-21 23:17 154 3 gusting 5 12.8
2019-Aug-21 23:02 151 4 gusting 5 13.3
2019-Aug-21 22:47 156 5 gusting 6 12.8
2019-Aug-21 22:42 152 2 gusting 6 12.8
2019-Aug-21 22:32 154 4 gusting 5 12.8
2019-Aug-21 22:27 149 4 gusting 6 12.8
2019-Aug-21 22:22 148 4 gusting 5 12.8
2019-Aug-21 22:17 146 4 gusting 5 12.8
2019-Aug-21 22:12 139 4 gusting 5 12.8
2019-Aug-21 22:02 145 4 gusting 4 12.8